Regional Weather Roundup
Issued by NWS

Home | Current Version | Previous Version | Text Only | Print | Product List | Glossary Off
Versions: 1 2 3 4 5 6 7 8 9 10 11 12 13 14 15 16 17 18 19 20 21 22 23 24 25 26 27 28 29 30 31 32 33 34 35 36 37 38 39 40 41 42 43 44 45 46 47 48 49 50

000
ASUS44 KMEG 270800
RWRTN
TENNESSEE HOURLY STATE WEATHER ROUNDUP
NATIONAL WEATHER SERVICE MEMPHIS TN
200 AM CST TUE JAN 27 2015

TNZ002-004-019-021-049-052-054-088>092-270900-
WEST TENNESSEE

CITY           SKY/WX    TMP DP  RH WIND       PRES   REMARKS
MEMPHIS INTL   CLEAR     43  33  68 W3        29.96R
NWS MEMPHIS      N/A     32 N/A N/A MISG        N/A
JACKSON        CLEAR     27  24  89 SW3       29.93R
DYERSBURG      FAIR      30  19  64 W3        29.95R
UNION CITY     CLEAR     25  25 100 CALM      29.90S
PARIS          PTCLDY    28  25  86 SW3       29.90R
LEXINGTON      CLEAR     27  25  93 CALM      29.90R
SAVANNAH       CLEAR     27  27 100 CALM      29.92S
$$

TNZ008-025-027-028-033-062-065-066-270900-
NORTH MIDDLE TENNESSEE

CITY           SKY/WX    TMP DP  RH WIND       PRES   REMARKS
NASHVILLE      CLOUDY    34  31  88 S6        29.90F WCI  29
CLARKSVILLE    CLOUDY    34  31  88 CALM      29.90R
COOKEVILLE     MOCLDY    30  30 100 S3        29.87F
CROSSVILLE     CLOUDY    29  27  92 CALM      29.85F FOG
$$

TNZ061-075-076-078-094-096-097-270900-
SOUTH MIDDLE TENNESSEE

CITY           SKY/WX    TMP DP  RH WIND       PRES   REMARKS
FAYETTEVILLE   CLOUDY    34  28  80 MISG      29.89S
TULLAHOMA        N/A     32  28  86 CALM      29.89S
WINCHESTER     CLOUDY    34  30  86 CALM      29.89F
MCMINNVILLE    CLOUDY    32  32 100 CALM      29.88F
SHELBYVILLE    CLOUDY    34  32  93 CALM      29.90F
$$

TNZ017-018-042-046-047-270900-
NORTHEAST TENNESSEE

CITY           SKY/WX    TMP DP  RH WIND       PRES   REMARKS
TRI CITIES     CLOUDY    29  23  78 W6        29.85S WCI  23
ELIZABETHTON   CLOUDY    27  21  80 W3        29.83F
$$

TNZ012-013-036-069-073-074-270900-
CENTRAL EAST TENNESSEE

CITY           SKY/WX    TMP DP  RH WIND       PRES   REMARKS
KNOXVILLE      FLURRIES  31  29  92 SW5       29.89F WCI  26
OAK RIDGE      CLOUDY    32  29  88 SW3       29.90F
GATLINBURG     CLOUDY    30  27  86 SW3       29.88F
$$

TNZ083-085-099-270900-
SOUTHEAST TENNESSEE

CITY           SKY/WX    TMP DP  RH WIND       PRES   REMARKS
CHATTANOOGA    CLOUDY    35  30  82 CALM      29.92F
$$

SKY/WX REPORTED AS FAIR MEANS FEW OR NO CLOUDS BELOW
12 THOUSAND FEET.



USA.gov is the U.S. government's official web portal to all federal, state and local government web resources and services.